Location: Unspecified
(52.0000°N, 4.4000°E)
Time: 00:27:53
(UTC+00:00)

H-2A R/B - Pass Details

Date: 14 May 2025
Orbit: 492 x 574 km, 98.2° (Epoch: 15 June)

Event Time Altitude Azimuth Distance (km) Brightness Sun altitude
Exits shadow 23:38:47 23° 115° (ESE) 1,234 3.8 -19.1°
Maximum altitude 23:40:40 35° 67° (ENE) 911 3.6 -19.1°
Drops below altitude 10° 23:44:17 10° 1° (N) 1,829 6.2 -19.1°
Sets 23:46:30 0° 352° (N) 2,712 7.4 -19.1°
